Showing default

HULIANWANG DIGUI-179, 100204

Orbit data source: Space-Track

HULIANWANG DIGUI-179, 100204 is a payload satellite owned by Zhongguo Xingwang (CN) in LEO that was launched on Tue, 04 Aug 2026 UTC launched from the Wenchang Satellite Launch Center (WSC). Payload-class satellites include a variety of spacecraft equipped with specific instruments for various scientific and technological missions. These include communications satellites like Starlink; space stations such as the ISS; scientific satellites like the Hubble; Earth observation satellites from companies like Planet Labs, Umbra, and HawkEye 360; GPS; miniature CubeSats for education and research; and military/defense satellites.

Loading next visibility...
Identifier
100204, 2026-176B
Orbit
LEO
Country
Flag of CNCN / PRC
Related business
Manufacturer
CAST?
Mission
Operational spacecraft
Bus & Motor
XINGWANG C, Unknown motor
Mass
~700 kg wet, ~700 kg dry
Launch date (UTC)
2026-08-04 (1 month ago)
Launch vehicle
Unknown
Launch site
Wenchang Satellite Launch Center (WSC)
Object type
Payload
Rocket body
Debris
Shape & HBR
BOX + 2 PAN, 5.0 m
Radar Cross Section
Large (>1 m²)

Expand to show TLE details & history
Last TLE update: 8 hours ago

TLE from 8 hours ago
0 HULIANWANG DIGUI-179
1 A0204U 26176B   26249.50266716 -.00000068  00000-0  12053-3 0  9993
2 A0204  49.9858 274.3724 0000164 321.0707  39.0153 13.29327048  4432
Epoch: 2026-09-06T12:03Z
TLE epoch observation values (Epoch: 2026-09-06T12:03:50.442Z)
Latitude
-0.00003°
Longitude
107.81534°
Altitude
1,149.711 km
Speed
7.279 km/s
True Right ascension
18h 17m 29s
True Declination
0° 00' 00"
Sunlit
Object was in daylight at epoch
Visualization orbit readout
Latitude
Unknown
Longitude
Unknown
Altitude
Unknown
Speed
Unknown
Apparent Right ascension
Unknown
Apparent Declination
Unknown
Sunlit
N/A
Visualization observer readout
Local Sidereal Time
12:23:31
Azimuth
Unknown
Elevation
Unknown
Doppler factor
Unknown
Orbital elements
Apogee altitude
1,150.134 km
Perigee altitude
1,149.887 km
Semi-major axis
7,528.147 km
Eccentricity
0.00002
Inclination
49.9858°
RAAN
274.3724°
Arg. of periapsis
321.0707°
True anomaly
39.01648°
Mean anomaly
39.0153°
Eccentric anomaly
39.01589°
Mean motion
3.32285 °/min
Orbital period
108.34 mins
BSTAR
0.00012053
Loading maneuver chart data...
Computing Atmospheric mass density...
Loading historical data...
Loading historical data...
Loading historical data...
Loading historical data...
Loading historical data...
Loading historical data...
Loading historical data...

Documentation

Showing up to 5 results
|